Year,Month,Day,Hour,Minute,Value (Times are PST for temperature in C)
2018,04,21,07,00,7.40
2018,04,21,07,01,7.50
2018,04,21,07,02,7.60
2018,04,21,07,03,7.60
2018,04,21,07,04,7.70
2018,04,21,07,05,7.70
2018,04,21,07,06,7.70
2018,04,21,07,07,7.80
2018,04,21,07,08,7.80
2018,04,21,07,09,7.80
2018,04,21,07,10,7.80
2018,04,21,07,11,7.80
2018,04,21,07,12,7.80
2018,04,21,07,13,7.80
2018,04,21,07,14,7.80
2018,04,21,07,15,7.80
2018,04,21,07,16,7.80
2018,04,21,07,17,7.80
2018,04,21,08,24,8.40
2018,04,21,08,25,8.50
2018,04,21,08,26,8.50
2018,04,21,08,27,8.50
2018,04,21,08,28,8.60
2018,04,21,08,29,8.60
2018,04,21,08,30,8.60
2018,04,21,08,31,8.70
2018,04,21,08,32,8.70
2018,04,21,08,33,8.60
2018,04,21,08,34,8.70
2018,04,21,08,35,8.70
2018,04,21,08,36,8.70
2018,04,21,08,37,8.80
2018,04,21,08,38,8.80
2018,04,21,08,39,8.90
2018,04,21,08,40,8.90
2018,04,21,08,41,8.90
2018,04,21,08,42,8.90
2018,04,21,08,43,8.90
2018,04,21,08,44,9.00
2018,04,21,08,45,9.00
2018,04,21,08,46,9.00
2018,04,21,08,47,9.10
2018,04,21,08,48,9.10
2018,04,21,08,49,9.10
2018,04,21,08,50,9.10
2018,04,21,08,51,9.10
2018,04,21,08,52,9.10
2018,04,21,08,53,9.20
2018,04,21,08,54,9.20
2018,04,21,08,55,9.20
2018,04,21,08,56,9.20
2018,04,21,08,57,9.20
2018,04,21,08,58,9.30
2018,04,21,08,59,9.30
2018,04,21,09,00,9.30
2018,04,21,09,01,9.30
2018,04,21,09,02,9.40
2018,04,21,09,03,9.40
2018,04,21,09,04,9.40
2018,04,21,09,05,9.40
2018,04,21,09,06,9.40
2018,04,21,09,07,9.50
2018,04,21,09,08,9.50
2018,04,21,09,09,9.60
2018,04,21,09,10,9.60
2018,04,21,09,11,9.60
2018,04,21,09,12,9.70
2018,04,21,09,13,9.70
2018,04,21,09,14,9.80
2018,04,21,09,15,9.80
2018,04,21,09,16,9.80
2018,04,21,09,17,9.80
2018,04,21,09,18,9.90
2018,04,21,09,19,10.00
2018,04,21,09,20,10.00
2018,04,21,09,21,10.10
2018,04,21,09,22,10.10
2018,04,21,09,23,10.10
2018,04,21,09,24,10.10
2018,04,21,09,25,10.10
2018,04,21,09,26,10.10
2018,04,21,09,27,10.10
2018,04,21,09,28,10.20
2018,04,21,09,29,10.20
2018,04,21,09,30,10.20
2018,04,21,09,31,10.30
2018,04,21,09,32,10.30
2018,04,21,09,33,10.40
2018,04,21,09,34,10.40
2018,04,21,09,35,10.50
2018,04,21,09,36,10.50
2018,04,21,09,37,10.60
2018,04,21,09,38,10.60
2018,04,21,09,39,10.60
2018,04,21,09,40,10.60
2018,04,21,09,41,10.60
2018,04,21,09,42,10.60
2018,04,21,09,43,10.70
2018,04,21,09,44,10.70
2018,04,21,09,45,10.70
2018,04,21,09,46,10.70
2018,04,21,09,47,10.80
2018,04,21,09,48,10.90
2018,04,21,09,49,10.90
2018,04,21,09,50,11.00
2018,04,21,09,51,11.00
2018,04,21,09,52,11.00
2018,04,21,09,53,11.10
2018,04,21,09,54,11.20
2018,04,21,09,55,11.30
2018,04,21,09,56,11.30
2018,04,21,09,57,11.40
2018,04,21,09,58,11.40
2018,04,21,09,59,11.40
2018,04,21,10,00,11.40
2018,04,21,10,01,11.40
2018,04,21,10,02,11.30
2018,04,21,10,03,11.30
2018,04,21,10,04,11.30
2018,04,21,10,05,11.30
2018,04,21,10,06,11.40
2018,04,21,10,07,11.40
2018,04,21,10,08,11.40
2018,04,21,10,09,11.50
2018,04,21,10,10,11.50
2018,04,21,10,11,11.60
2018,04,21,10,12,11.70
2018,04,21,10,13,11.80
2018,04,21,10,14,11.90
2018,04,21,10,15,11.90
2018,04,21,10,16,11.90
2018,04,21,10,17,11.90
2018,04,21,10,18,11.90
2018,04,21,10,19,12.00
2018,04,21,10,20,12.00
2018,04,21,10,21,12.00
2018,04,21,10,22,12.10
2018,04,21,10,23,12.10
2018,04,21,10,24,12.10
2018,04,21,10,25,12.10
2018,04,21,10,26,12.00
2018,04,21,10,27,12.00
2018,04,21,10,28,12.00
2018,04,21,10,29,12.00
2018,04,21,10,30,12.10
2018,04,21,10,31,12.20
2018,04,21,10,32,12.30
2018,04,21,10,33,12.40
2018,04,21,10,34,12.50
2018,04,21,10,35,12.60
2018,04,21,10,36,12.60
2018,04,21,10,37,12.60
2018,04,21,10,38,12.60
2018,04,21,10,39,12.60
2018,04,21,10,40,12.70
2018,04,21,10,41,12.70
2018,04,21,10,42,12.70
2018,04,21,10,43,12.60
2018,04,21,10,44,12.50
2018,04,21,10,45,12.50
2018,04,21,10,46,12.50
2018,04,21,10,47,12.40
2018,04,21,10,48,12.40
2018,04,21,10,49,12.40
2018,04,21,10,50,12.40
2018,04,21,10,51,12.40
2018,04,21,10,52,12.40
2018,04,21,10,53,12.50
2018,04,21,10,54,12.60
2018,04,21,10,55,12.60
2018,04,21,10,56,12.60
2018,04,21,10,57,12.60
2018,04,21,10,58,12.60
2018,04,21,10,59,12.70
2018,04,21,11,00,12.70
2018,04,21,11,01,12.80
2018,04,21,11,02,12.70
2018,04,21,11,03,12.70
2018,04,21,11,04,12.90
2018,04,21,11,05,12.90
2018,04,21,11,06,12.90
2018,04,21,11,07,13.00
2018,04,21,11,08,13.10
2018,04,21,11,09,13.20
2018,04,21,11,10,13.30
2018,04,21,11,11,13.40
2018,04,21,11,12,13.40
2018,04,21,11,13,13.40
2018,04,21,11,14,13.30
2018,04,21,11,15,13.30
2018,04,21,11,16,13.20
2018,04,21,11,17,13.20
2018,04,21,11,18,13.20
2018,04,21,11,19,13.10
2018,04,21,11,20,13.10
2018,04,21,11,21,13.20
2018,04,21,11,22,13.20
2018,04,21,11,23,13.30
2018,04,21,11,24,13.30
2018,04,21,11,25,13.40
2018,04,21,11,26,13.40
2018,04,21,11,27,13.50
2018,04,21,11,28,13.60
2018,04,21,11,29,13.60
2018,04,21,11,30,13.50
2018,04,21,11,31,13.50
2018,04,21,11,32,13.50
2018,04,21,11,33,13.60
2018,04,21,11,34,13.70
2018,04,21,11,35,13.60
2018,04,21,11,36,13.60
2018,04,21,11,37,13.60
2018,04,21,11,38,13.60
2018,04,21,11,39,13.70
2018,04,21,11,40,13.80
2018,04,21,11,41,13.80
2018,04,21,11,42,13.80
2018,04,21,11,43,13.80
2018,04,21,11,44,13.80
2018,04,21,11,45,13.90
2018,04,21,11,46,13.80
2018,04,21,11,47,13.70
2018,04,21,11,48,13.60
2018,04,21,11,49,13.20
2018,04,21,11,50,12.80
2018,04,21,11,51,12.40
2018,04,21,11,52,12.10
2018,04,21,11,53,11.80
2018,04,21,11,54,11.60
2018,04,21,11,55,11.50
2018,04,21,11,56,11.40
2018,04,21,11,57,11.20
2018,04,21,11,58,11.10
2018,04,21,11,59,11.00
2018,04,21,12,00,10.90
2018,04,21,12,01,10.80
2018,04,21,12,02,10.80
2018,04,21,12,03,10.80
2018,04,21,12,04,10.90
2018,04,21,12,05,10.90
2018,04,21,12,06,11.00
2018,04,21,12,07,11.10
2018,04,21,12,08,11.20
2018,04,21,12,09,11.30
2018,04,21,12,10,11.50
2018,04,21,12,11,11.60
2018,04,21,12,12,11.70
2018,04,21,12,13,11.70
2018,04,21,12,14,11.80
2018,04,21,12,15,11.80
2018,04,21,12,16,11.80
2018,04,21,12,17,11.80
2018,04,21,12,18,11.80
2018,04,21,12,19,11.70
2018,04,21,12,20,11.60
2018,04,21,12,21,11.60
2018,04,21,12,22,11.40
2018,04,21,12,23,11.20
2018,04,21,12,24,11.10
2018,04,21,12,25,11.00
2018,04,21,12,26,10.80
2018,04,21,12,27,10.70
2018,04,21,12,28,10.50
2018,04,21,12,29,10.40
2018,04,21,12,30,10.40
2018,04,21,12,31,10.50
2018,04,21,12,32,10.50
2018,04,21,12,33,10.50
2018,04,21,12,34,10.60
2018,04,21,12,35,10.60
2018,04,21,12,36,10.60
2018,04,21,12,37,10.60
2018,04,21,12,38,10.50
2018,04,21,12,39,10.60
2018,04,21,12,40,10.60
2018,04,21,12,41,10.60
2018,04,21,12,42,10.60
2018,04,21,12,43,10.60
2018,04,21,12,44,10.60
2018,04,21,12,45,10.60
2018,04,21,12,46,10.60
2018,04,21,12,47,10.60
2018,04,21,12,48,10.60
2018,04,21,12,49,10.60
2018,04,21,12,50,10.60
2018,04,21,12,51,10.60
2018,04,21,12,52,10.60
2018,04,21,12,53,10.60
2018,04,21,12,54,10.70
2018,04,21,12,55,10.80
2018,04,21,12,56,10.90
2018,04,21,12,57,10.90
2018,04,21,12,58,11.00
2018,04,21,12,59,11.20
2018,04,21,13,00,11.20
2018,04,21,13,01,11.30
2018,04,21,13,02,11.20
2018,04,21,13,03,11.10
2018,04,21,13,04,11.10
2018,04,21,13,05,11.00
2018,04,21,13,06,11.00
2018,04,21,13,07,10.90
2018,04,21,13,08,10.80
2018,04,21,13,09,10.80
2018,04,21,13,10,10.80
2018,04,21,13,11,10.70
2018,04,21,13,12,10.70
2018,04,21,13,13,10.70
2018,04,21,13,14,10.80
2018,04,21,13,15,10.80
2018,04,21,13,16,10.80
2018,04,21,13,17,10.90
2018,04,21,13,18,10.90
2018,04,21,13,19,10.90
2018,04,21,13,20,10.90
2018,04,21,13,21,10.90
2018,04,21,13,22,11.00
2018,04,21,13,23,11.10
2018,04,21,13,24,11.00
2018,04,21,13,25,11.00
2018,04,21,13,26,11.00
2018,04,21,13,27,11.00
2018,04,21,13,28,11.10
2018,04,21,13,29,11.10
2018,04,21,13,30,11.10
2018,04,21,13,31,11.10
2018,04,21,13,32,11.10
2018,04,21,13,33,11.10
2018,04,21,13,34,11.10
2018,04,21,13,35,11.00
2018,04,21,13,36,11.00
2018,04,21,13,37,11.00
2018,04,21,13,38,11.10
2018,04,21,13,39,11.10
2018,04,21,13,40,11.20
2018,04,21,13,41,11.20
2018,04,21,13,42,11.20
2018,04,21,13,43,11.20
2018,04,21,13,44,11.20
2018,04,21,13,45,11.30
2018,04,21,13,46,11.20
2018,04,21,13,47,11.20
2018,04,21,13,48,11.20
2018,04,21,13,49,11.10
2018,04,21,13,50,11.10
2018,04,21,13,51,11.10
2018,04,21,13,52,11.10
2018,04,21,13,53,11.10
2018,04,21,13,54,11.20
2018,04,21,13,55,11.20
2018,04,21,13,56,11.30
2018,04,21,13,57,11.30
2018,04,21,13,58,11.20
2018,04,21,13,59,11.20
2018,04,21,14,00,11.20
2018,04,21,14,01,11.20
2018,04,21,14,02,11.20
2018,04,21,14,03,11.20
2018,04,21,14,04,11.10
2018,04,21,14,05,11.00
2018,04,21,14,06,11.00
2018,04,21,14,07,11.00
2018,04,21,14,08,11.00
2018,04,21,14,09,11.00
2018,04,21,14,10,10.90
2018,04,21,14,11,10.90
2018,04,21,14,12,10.90
2018,04,21,14,13,10.90
2018,04,21,14,14,10.90
2018,04,21,14,15,10.90
2018,04,21,14,16,10.90
2018,04,21,14,17,10.90
2018,04,21,14,18,10.90
2018,04,21,14,19,10.90
2018,04,21,14,20,11.00
2018,04,21,14,21,11.00
2018,04,21,14,22,11.00
2018,04,21,14,23,11.00
2018,04,21,14,24,11.00
2018,04,21,14,25,11.10
2018,04,21,14,26,11.10
2018,04,21,14,27,11.10
2018,04,21,14,28,11.10
2018,04,21,14,29,11.20
2018,04,21,14,30,11.20
2018,04,21,14,31,11.30
2018,04,21,14,32,11.30
2018,04,21,14,33,11.20
2018,04,21,14,34,11.20
2018,04,21,14,35,11.30
2018,04,21,14,36,11.30
2018,04,21,14,37,11.30
2018,04,21,14,38,11.30
2018,04,21,14,39,11.20
2018,04,21,14,40,11.20
2018,04,21,14,41,11.30
2018,04,21,14,42,11.30
2018,04,21,14,43,11.30
2018,04,21,14,44,11.40
2018,04,21,14,45,11.40
2018,04,21,14,46,11.50
2018,04,21,14,47,11.50
2018,04,21,14,48,11.50
2018,04,21,14,49,11.50
2018,04,21,14,50,11.50
2018,04,21,14,51,11.50
2018,04,21,14,52,11.40
2018,04,21,14,53,11.40
2018,04,21,14,54,11.40
2018,04,21,14,55,11.40
2018,04,21,14,56,11.30
2018,04,21,14,57,11.30
2018,04,21,14,58,11.30
2018,04,21,14,59,11.40
2018,04,21,15,00,11.50
2018,04,21,15,01,11.60
2018,04,21,15,02,11.50
2018,04,21,15,03,11.50
2018,04,21,15,04,11.40
2018,04,21,15,05,11.40
2018,04,21,15,06,11.40
2018,04,21,15,07,11.40
2018,04,21,15,08,11.40
2018,04,21,15,09,11.40
2018,04,21,15,10,11.40
2018,04,21,15,11,11.40
2018,04,21,15,12,11.40
2018,04,21,15,13,11.40
2018,04,21,15,14,11.40
2018,04,21,15,15,11.40
2018,04,21,15,16,11.50
2018,04,21,15,17,11.50
2018,04,21,15,18,11.60
2018,04,21,15,19,11.70
2018,04,21,15,20,11.70
2018,04,21,15,21,11.70
2018,04,21,15,22,11.70
2018,04,21,15,23,11.80
2018,04,21,15,24,11.90
2018,04,21,15,25,12.00
2018,04,21,15,26,12.10
2018,04,21,15,27,12.20
2018,04,21,15,28,12.30
2018,04,21,15,29,12.40
2018,04,21,15,30,12.40
2018,04,21,15,31,12.40
2018,04,21,15,32,12.40
2018,04,21,15,33,12.40
2018,04,21,15,34,12.50
2018,04,21,15,35,12.50
2018,04,21,15,36,12.40
2018,04,21,15,37,12.30
2018,04,21,15,38,12.30
2018,04,21,15,39,12.30
2018,04,21,15,40,12.40
2018,04,21,15,41,12.50
2018,04,21,15,42,12.60
2018,04,21,15,43,12.60
2018,04,21,15,44,12.60
2018,04,21,15,45,12.60
2018,04,21,15,46,12.60
2018,04,21,15,47,12.50
2018,04,21,15,48,12.40
2018,04,21,15,49,12.40
2018,04,21,15,50,12.30
2018,04,21,15,51,12.30
2018,04,21,15,52,12.30
2018,04,21,15,53,12.40
2018,04,21,15,54,12.40
2018,04,21,15,55,12.50
2018,04,21,15,56,12.40
2018,04,21,15,57,12.40
2018,04,21,15,58,12.40
2018,04,21,15,59,12.40
2018,04,21,16,00,12.30
2018,04,21,16,01,12.20
2018,04,21,16,02,12.20
2018,04,21,16,03,12.20
2018,04,21,16,04,12.20
2018,04,21,16,05,12.10
2018,04,21,16,06,12.00
2018,04,21,16,07,11.90
2018,04,21,16,08,11.80
2018,04,21,16,09,11.60
2018,04,21,16,10,11.50
2018,04,21,16,11,11.30
2018,04,21,16,12,11.20
2018,04,21,16,13,11.00
2018,04,21,16,14,10.90
2018,04,21,16,15,10.80
2018,04,21,16,16,10.80
2018,04,21,16,17,10.80
2018,04,21,16,18,10.80
2018,04,21,16,19,10.90
2018,04,21,16,20,11.00
2018,04,21,16,21,11.10
2018,04,21,16,22,11.20
2018,04,21,16,23,11.30
2018,04,21,16,24,11.30
2018,04,21,16,25,11.40
2018,04,21,16,26,11.40
2018,04,21,16,27,11.40
2018,04,21,16,28,11.40
2018,04,21,16,29,11.50
2018,04,21,16,30,11.50
2018,04,21,16,31,11.60
2018,04,21,16,32,11.70
2018,04,21,16,33,11.70
2018,04,21,16,34,11.70
2018,04,21,16,35,11.70
2018,04,21,16,36,11.60
2018,04,21,16,37,11.60
2018,04,21,16,38,11.60
2018,04,21,16,39,11.50
2018,04,21,16,40,11.40
2018,04,21,16,41,11.40
2018,04,21,16,42,11.50
2018,04,21,16,43,11.50
2018,04,21,16,44,11.60
2018,04,21,16,45,11.50
2018,04,21,16,46,11.50
2018,04,21,16,47,11.40
2018,04,21,16,48,11.40
2018,04,21,16,49,11.30
2018,04,21,16,50,11.30
2018,04,21,16,51,11.40
2018,04,21,16,52,11.50
2018,04,21,16,53,11.60
2018,04,21,16,54,11.70
2018,04,21,16,55,11.80
2018,04,21,16,56,11.90
2018,04,21,16,57,12.00
2018,04,21,16,58,12.00
2018,04,21,16,59,12.10
2018,04,21,17,00,12.20
2018,04,21,17,01,12.20
2018,04,21,17,02,12.20
2018,04,21,17,03,12.30
2018,04,21,17,04,12.30
2018,04,21,17,05,12.30
2018,04,21,17,06,12.30
2018,04,21,17,07,12.30
2018,04,21,17,08,12.20
2018,04,21,17,09,12.20
2018,04,21,17,10,12.20
2018,04,21,17,11,12.20
2018,04,21,17,12,12.20
2018,04,21,17,13,12.20
2018,04,21,17,14,12.20
2018,04,21,17,15,12.20
2018,04,21,17,16,12.20
2018,04,21,17,17,12.10
2018,04,21,17,18,12.10
2018,04,21,17,19,12.00
2018,04,21,17,20,12.00
2018,04,21,17,21,12.00
2018,04,21,17,22,11.90
2018,04,21,17,23,12.00
2018,04,21,17,24,12.00
2018,04,21,17,25,12.00
2018,04,21,17,26,12.10
2018,04,21,17,27,12.10
2018,04,21,17,28,12.10
2018,04,21,17,29,12.10
2018,04,21,17,30,12.10
2018,04,21,17,31,12.10
2018,04,21,17,32,12.10
2018,04,21,17,33,12.10
2018,04,21,17,34,12.10
2018,04,21,17,35,12.10
2018,04,21,17,36,12.20
2018,04,21,17,37,12.20
2018,04,21,17,38,12.10
2018,04,21,17,39,12.10
2018,04,21,17,40,12.00
2018,04,21,17,41,11.90
2018,04,21,17,42,11.90
2018,04,21,17,43,11.80
2018,04,21,17,44,11.80
2018,04,21,17,45,11.70
2018,04,21,17,46,11.70
2018,04,21,17,47,11.70
2018,04,21,17,48,11.60
2018,04,21,17,49,11.60
2018,04,21,17,50,11.70
2018,04,21,17,51,11.70
2018,04,21,17,52,11.70
2018,04,21,17,53,11.80
2018,04,21,17,54,11.80
2018,04,21,17,55,11.80
2018,04,21,17,56,11.80
2018,04,21,17,57,11.90
2018,04,21,17,58,12.00
2018,04,21,17,59,12.00
2018,04,21,18,00,12.10
2018,04,21,18,01,12.20
2018,04,21,18,02,12.20
2018,04,21,18,03,12.20
2018,04,21,18,04,12.20
2018,04,21,18,05,12.20
2018,04,21,18,06,12.20
2018,04,21,18,07,12.20
2018,04,21,18,08,12.20
2018,04,21,18,09,12.20
2018,04,21,18,10,12.20
2018,04,21,18,11,12.20
2018,04,21,18,12,12.20
2018,04,21,18,13,12.20
2018,04,21,18,14,12.20
2018,04,21,18,15,12.20
2018,04,21,18,16,12.30
2018,04,21,18,17,12.30
2018,04,21,18,18,12.30
2018,04,21,18,19,12.40
2018,04,21,18,20,12.50
2018,04,21,18,21,12.50
2018,04,21,18,22,12.50
2018,04,21,18,23,12.60
2018,04,21,18,24,12.60
2018,04,21,18,25,12.70
2018,04,21,18,26,12.60
2018,04,21,18,27,12.60
2018,04,21,18,28,12.60
2018,04,21,18,29,12.70
2018,04,21,18,30,12.70
2018,04,21,18,31,12.70
2018,04,21,18,32,12.70
2018,04,21,18,33,12.60
2018,04,21,18,34,12.60
2018,04,21,18,35,12.60
2018,04,21,18,36,12.60
2018,04,21,18,37,12.60
2018,04,21,18,38,12.60
2018,04,21,18,39,12.60
2018,04,21,18,40,12.60
2018,04,21,18,41,12.60
2018,04,21,18,42,12.60
2018,04,21,18,43,12.60
2018,04,21,18,44,12.60
2018,04,21,18,45,12.50
2018,04,21,18,46,12.50
2018,04,21,18,47,12.50
2018,04,21,18,48,12.40
2018,04,21,18,49,12.50
2018,04,21,18,50,12.50
2018,04,21,18,51,12.50
2018,04,21,18,52,12.40
2018,04,21,18,53,12.40
2018,04,21,18,54,12.40
2018,04,21,18,55,12.30
2018,04,21,18,56,12.30
2018,04,21,18,57,12.20
2018,04,21,18,58,12.20
2018,04,21,18,59,12.20
2018,04,21,19,00,12.20
2018,04,21,19,01,12.20
2018,04,21,19,02,12.20
2018,04,21,19,03,12.20
2018,04,21,19,04,12.20
2018,04,21,19,05,12.20
2018,04,21,19,06,12.20
2018,04,21,19,07,12.20
2018,04,21,19,08,12.20
2018,04,21,19,09,12.30
2018,04,21,19,10,12.30
2018,04,21,19,11,12.30
2018,04,21,19,12,12.30
2018,04,21,19,13,12.20
2018,04,21,19,14,12.10
2018,04,21,19,15,12.10
2018,04,21,19,16,12.00
2018,04,21,19,17,11.90
2018,04,21,19,18,11.90
2018,04,21,19,19,11.80
2018,04,21,19,20,11.80
2018,04,21,19,21,11.80
2018,04,21,19,22,11.80
2018,04,21,19,23,11.70
2018,04,21,19,24,11.70
2018,04,21,19,25,11.60
2018,04,21,19,26,11.60
2018,04,21,19,27,11.60
2018,04,21,19,28,11.50
2018,04,21,19,29,11.40
2018,04,21,19,30,11.40
2018,04,21,19,31,11.40
2018,04,21,19,32,11.30
2018,04,21,19,33,11.30
2018,04,21,19,34,11.20
2018,04,21,19,35,11.20
2018,04,21,19,36,11.10
2018,04,21,19,37,11.10
2018,04,21,19,38,11.00
2018,04,21,19,39,11.00
2018,04,21,19,40,11.00
2018,04,21,19,41,10.90
2018,04,21,19,42,10.90
2018,04,21,19,43,10.90
2018,04,21,19,44,10.90
2018,04,21,19,45,10.90
2018,04,21,19,46,10.80
2018,04,21,19,47,10.80
2018,04,21,19,48,10.80
2018,04,21,19,49,10.70
2018,04,21,19,50,10.70
2018,04,21,19,51,10.60
2018,04,21,19,52,10.60
2018,04,21,19,53,10.60
2018,04,21,19,54,10.50
2018,04,21,19,55,10.50
2018,04,21,19,56,10.50
2018,04,21,19,57,10.50
2018,04,21,19,58,10.40
2018,04,21,19,59,10.40
2018,04,21,20,00,10.40
2018,04,21,20,01,10.30
2018,04,21,20,02,10.30
2018,04,21,20,03,10.30
2018,04,21,20,04,10.30
2018,04,21,20,05,10.20
2018,04,21,20,06,10.20
2018,04,21,20,07,10.20
2018,04,21,20,08,10.10
2018,04,21,20,09,10.10
2018,04,21,20,10,10.10
2018,04,21,20,11,10.00
2018,04,21,20,12,10.00
2018,04,21,20,13,9.90
2018,04,21,20,14,9.90
2018,04,21,20,15,9.90
2018,04,21,20,16,9.90
2018,04,21,20,17,9.80
2018,04,21,20,18,9.80
2018,04,21,20,19,9.80
2018,04,21,20,20,9.70
2018,04,21,20,21,9.70
2018,04,21,20,22,9.60
2018,04,21,20,23,9.60
2018,04,21,20,24,9.60
2018,04,21,20,25,9.60
2018,04,21,20,26,9.50
2018,04,21,20,27,9.50
2018,04,21,20,28,9.50
2018,04,21,20,29,9.50
2018,04,21,20,30,9.50
2018,04,21,20,31,9.40
2018,04,21,20,32,9.40
2018,04,21,20,33,9.40
2018,04,21,20,34,9.30
2018,04,21,20,35,9.30
2018,04,21,20,36,9.30
2018,04,21,20,37,9.30
2018,04,21,20,38,9.30
2018,04,21,20,39,9.30
2018,04,21,20,40,9.20
2018,04,21,20,41,9.20
2018,04,21,20,42,9.20
2018,04,21,20,43,9.20
2018,04,21,20,44,9.20
2018,04,21,20,45,9.20
2018,04,21,20,46,9.20
2018,04,21,20,47,9.20
2018,04,21,20,48,9.20
2018,04,21,20,49,9.20
2018,04,21,20,50,9.20
2018,04,21,20,51,9.20
2018,04,21,20,52,9.20
2018,04,21,20,53,9.20
2018,04,21,20,54,9.20
2018,04,21,20,55,9.20
2018,04,21,20,56,9.20
2018,04,21,20,57,9.20
2018,04,21,20,58,9.20
2018,04,21,20,59,9.20
